Weather WX

World > North America > United States > New York

Jefferson County, New York Regional Weather

Lat: 44.03N, Lon: 75.94W
Wx Zone: NYZ007
Feedback

Jefferson County, NY Regional Weather

Expires:201906200300;;762140
ASUS41 KBTV 200230
RWRBTV
VERMONT REGIONAL WEATHER ROUNDUP
NATIONAL WEATHER SERVICE BURLINGTON VT
1000 PM EDT WED JUN 19 2019

NOTE: "FAIR" INDICATES FEW OR NO CLOUDS BELOW 12,000 FEET WITH NO 
SIGNIFICANT WEATHER AND/OR OBSTRUCTIONS TO VISIBILITY.

* THESE REPORTS ARE NOT UNDER NWS QUALITY CONTROL AND/OR DO NOT
  REPORT WEATHER SUCH AS PRECIPITATION AND FOG.


NYZ007-026>031-035-052-083-087-200300-
_____NORTHERN NEW YORK_
  
CITY           SKY/WX    TMP DP  RH WIND       PRES   REMARKS
PLATTSBURGH    MOCLDY    66  65  96 CALM      29.72R FOG              
SARANAC LAKE   FAIR      60  59  96 CALM      29.77R                  
MASSENA        FAIR      66  58  75 CALM      29.72R                  
OGDENSBURG*    FAIR      66  63  88 CALM      29.69F                  
POTSDAM*       CLOUDY    64  61  88 CALM      29.72S                  
WATERTOWN      FAIR      62  60  93 E3        29.71S                  
FT DRUM        FAIR      67  61  79 CALM      29.72S HAZE             
ALBANY         MOCLDY    72  64  76 S9        29.75F                  
GLENS FALLS    FAIR      67  64  90 S3        29.74S                  

$$

SKY/WX - Weather  TMP - Temperature  DP - Dew Point  RH - Relative Humidity
WIND - Wind Direction/Speed PRES - Barometric Pressure VSB - Visibility
WCI - Wind Chill Index E13G22 Wind - East Wind 13 mph/Gusts of 22 mph